Zurück zum Katalog

COSMOS 2251 DEB

AktivLEO
NORAD 36528·DEBRIS·🇷🇺 Russia

Gestartet Jun 16, 1993 von Plesetsk Cosmodrome

Loading…

Nächste Überflüge (nächste 24 Stunden)

TLE

AktuellSource: Space-Track

Epoche: Sep 14, 2026, 13:39 UTC

1 36528U 93036BCN 26257.56919869  .00000866  00000-0  32258-3 0  9993
2 36528  74.0197   2.1631 0084741 345.2117  14.6555 14.31516753683733

Verfolge COSMOS 2251 DEB in Echtzeit mit AllMySat

Download on the App Store